Time,TemperatureF,DewpointF,PressureIn,WindDirection,WindDirectionDegrees,WindSpeedMPH,WindSpeedGustMPH,Humidity,HourlyPrecipIn,Conditions,Clouds,dailyrainin,SoftwareType,DateUTC
2013-01-21 00:00:00,16.0,-14.0,29.52,West,270,5.6,5.6,25,0.00,,,0.00,WUHU21623XXSP,2013-01-21 05:00:00,
2013-01-21 00:01:00,16.0,-14.0,29.52,West,270,5.6,5.6,25,0.00,,,0.00,WUHU21623XXSP,2013-01-21 05:01:00,
2013-01-21 00:03:00,16.0,-14.0,29.52,West,270,5.6,5.6,25,0.00,,,0.00,WUHU21623XXSP,2013-01-21 05:03:00,
2013-01-21 00:10:00,16.0,-14.8,29.52,WNW,292,4.7,4.7,24,0.00,,,0.00,WUHU21623XXSP,2013-01-21 05:10:00,
2013-01-21 00:15:00,15.6,-17.6,29.51,WSW,247,0.0,4.7,21,0.00,,,0.00,WUHU21623XXSP,2013-01-21 05:15:00,
2013-01-21 00:20:00,15.8,-17.4,29.51,West,270,0.0,1.1,21,0.00,,,0.00,WUHU21623XXSP,2013-01-21 05:20:00,
2013-01-21 00:25:00,15.6,-19.3,29.50,West,270,0.0,1.1,19,0.00,,,0.00,WUHU21623XXSP,2013-01-21 05:25:00,
2013-01-21 00:30:00,15.6,-19.3,29.50,NW,315,4.3,4.3,19,0.00,,,0.00,WUHU21623XXSP,2013-01-21 05:30:00,
2013-01-21 00:35:00,15.6,-19.3,29.50,WNW,292,0.0,4.3,19,0.00,,,0.00,WUHU21623XXSP,2013-01-21 05:35:00,
2013-01-21 00:40:00,15.6,-19.3,29.49,WNW,292,0.0,3.1,19,0.00,,,0.00,WUHU21623XXSP,2013-01-21 05:40:00,
2013-01-21 00:45:00,15.6,-19.3,29.49,WNW,292,0.0,5.1,19,0.00,,,0.00,WUHU21623XXSP,2013-01-21 05:45:00,
2013-01-21 00:50:00,15.6,-19.3,29.49,WNW,292,6.9,6.9,19,0.00,,,0.00,WUHU21623XXSP,2013-01-21 05:50:00,
2013-01-21 00:55:00,15.4,-19.5,29.49,WNW,292,4.9,6.9,19,0.00,,,0.00,WUHU21623XXSP,2013-01-21 05:55:00,
2013-01-21 01:00:00,15.3,-19.6,29.49,West,270,3.6,5.6,19,0.00,,,0.00,WUHU21623XXSP,2013-01-21 06:00:00,
2013-01-21 01:05:00,15.3,-19.6,29.49,West,270,2.0,4.0,19,0.00,,,0.00,WUHU21623XXSP,2013-01-21 06:05:00,
2013-01-21 01:10:00,14.9,-19.9,29.48,WNW,292,6.9,6.9,19,0.00,,,0.00,WUHU21623XXSP,2013-01-21 06:10:00,
2013-01-21 01:15:00,14.7,-20.1,29.48,WNW,292,0.0,6.9,19,0.00,,,0.00,WUHU21623XXSP,2013-01-21 06:15:00,
2013-01-21 01:20:00,14.7,-19.1,29.48,WNW,292,2.7,2.7,20,0.00,,,0.00,WUHU21623XXSP,2013-01-21 06:20:00,
2013-01-21 01:25:00,14.5,-20.2,29.48,WNW,292,1.8,2.7,19,0.00,,,0.00,WUHU21623XXSP,2013-01-21 06:25:00,
2013-01-21 01:30:00,14.4,-20.3,29.47,West,270,3.8,5.8,19,0.00,,,0.00,WUHU21623XXSP,2013-01-21 06:30:00,
2013-01-21 01:35:00,14.2,-20.5,29.47,WNW,292,6.3,6.3,19,0.00,,,0.00,WUHU21623XXSP,2013-01-21 06:35:00,
2013-01-21 01:40:00,14.2,-20.5,29.47,WNW,292,5.6,6.3,19,0.00,,,0.00,WUHU21623XXSP,2013-01-21 06:40:00,
2013-01-21 01:45:00,14.4,-20.3,29.47,NW,315,0.0,5.6,19,0.00,,,0.00,WUHU21623XXSP,2013-01-21 06:45:00,
2013-01-21 01:50:00,14.4,-20.3,29.47,NNW,337,0.0,0.0,19,0.00,,,0.00,WUHU21623XXSP,2013-01-21 06:50:00,
2013-01-21 01:55:00,14.5,-20.2,29.47,NW,315,0.0,0.0,19,0.00,,,0.00,WUHU21623XXSP,2013-01-21 06:55:00,
2013-01-21 02:00:00,14.7,-20.1,29.47,WNW,292,0.0,0.0,19,0.00,,,0.00,WUHU21623XXSP,2013-01-21 07:00:00,
2013-01-21 02:05:00,14.7,-20.1,29.47,WNW,292,0.0,0.0,19,0.00,,,0.00,WUHU21623XXSP,2013-01-21 07:05:00,
2013-01-21 02:10:00,14.7,-20.1,29.47,WNW,292,0.0,0.0,19,0.00,,,0.00,WUHU21623XXSP,2013-01-21 07:10:00,
2013-01-21 02:15:00,14.9,-19.9,29.47,WNW,292,0.0,5.4,19,0.00,,,0.00,WUHU21623XXSP,2013-01-21 07:15:00,
2013-01-21 02:20:00,14.7,-20.1,29.48,WNW,292,0.0,5.4,19,0.00,,,0.00,WUHU21623XXSP,2013-01-21 07:20:00,
2013-01-21 02:25:00,14.9,-19.9,29.47,WNW,292,3.1,3.1,19,0.00,,,0.00,WUHU21623XXSP,2013-01-21 07:25:00,
2013-01-21 02:30:00,14.9,-19.9,29.47,West,270,0.0,3.1,19,0.00,,,0.00,WUHU21623XXSP,2013-01-21 07:30:00,
2013-01-21 02:35:00,14.9,-19.9,29.47,WNW,292,0.0,0.0,19,0.00,,,0.00,WUHU21623XXSP,2013-01-21 07:35:00,
2013-01-21 02:40:00,14.7,-20.1,29.47,WNW,292,0.0,0.0,19,0.00,,,0.00,WUHU21623XXSP,2013-01-21 07:40:00,
2013-01-21 02:45:00,14.9,-19.9,29.47,WNW,292,0.0,0.0,19,0.00,,,0.00,WUHU21623XXSP,2013-01-21 07:45:00,
2013-01-21 02:50:00,14.9,-19.9,29.47,WNW,292,0.0,0.0,19,0.00,,,0.00,WUHU21623XXSP,2013-01-21 07:50:00,
2013-01-21 02:55:00,14.9,-19.9,29.47,WSW,247,0.0,0.0,19,0.00,,,0.00,WUHU21623XXSP,2013-01-21 07:55:00,
2013-01-21 03:00:00,15.1,-19.7,29.47,WSW,247,0.0,0.0,19,0.00,,,0.00,WUHU21623XXSP,2013-01-21 08:00:00,
2013-01-21 03:05:00,14.9,-19.9,29.47,WSW,247,0.0,0.0,19,0.00,,,0.00,WUHU21623XXSP,2013-01-21 08:05:00,
2013-01-21 03:10:00,14.9,-19.9,29.47,West,270,0.0,0.0,19,0.00,,,0.00,WUHU21623XXSP,2013-01-21 08:10:00,
2013-01-21 03:15:00,14.7,-20.1,29.46,West,270,0.0,0.0,19,0.00,,,0.00,WUHU21623XXSP,2013-01-21 08:15:00,
2013-01-21 03:20:00,14.7,-20.1,29.46,WSW,247,0.0,0.0,19,0.00,,,0.00,WUHU21623XXSP,2013-01-21 08:20:00,
2013-01-21 03:25:00,14.7,-20.1,29.46,WSW,247,0.0,0.0,19,0.00,,,0.00,WUHU21623XXSP,2013-01-21 08:25:00,
2013-01-21 03:30:00,14.9,-19.9,29.45,WSW,247,0.0,0.0,19,0.00,,,0.00,WUHU21623XXSP,2013-01-21 08:30:00,
2013-01-21 03:35:00,14.9,-19.9,29.45,WSW,247,0.0,0.0,19,0.00,,,0.00,WUHU21623XXSP,2013-01-21 08:35:00,
2013-01-21 03:40:00,14.9,-19.9,29.45,West,270,0.0,0.0,19,0.00,,,0.00,WUHU21623XXSP,2013-01-21 08:40:00,
2013-01-21 03:45:00,14.7,-20.1,29.45,West,270,0.0,0.0,19,0.00,,,0.00,WUHU21623XXSP,2013-01-21 08:45:00,
2013-01-21 03:50:00,14.5,-20.2,29.45,West,270,0.0,0.0,19,0.00,,,0.00,WUHU21623XXSP,2013-01-21 08:50:00,
2013-01-21 03:55:00,14.5,-20.2,29.45,WSW,247,0.0,0.0,19,0.00,,,0.00,WUHU21623XXSP,2013-01-21 08:55:00,
2013-01-21 04:00:00,14.4,-20.3,29.45,WSW,247,0.0,0.0,19,0.00,,,0.00,WUHU21623XXSP,2013-01-21 09:00:00,
2013-01-21 04:05:00,14.4,-20.3,29.44,WSW,247,0.0,0.0,19,0.00,,,0.00,WUHU21623XXSP,2013-01-21 09:05:00,
2013-01-21 04:10:00,14.4,-19.4,29.44,WSW,247,0.0,0.0,20,0.00,,,0.00,WUHU21623XXSP,2013-01-21 09:10:00,
2013-01-21 04:15:00,14.7,-16.7,29.44,WSW,247,0.0,0.0,23,0.00,,,0.00,WUHU21623XXSP,2013-01-21 09:15:00,
2013-01-21 04:20:00,15.3,-13.0,29.44,WSW,247,0.0,0.0,27,0.00,,,0.00,WUHU21623XXSP,2013-01-21 09:20:00,
2013-01-21 04:25:00,15.4,-12.1,29.43,WSW,247,0.0,0.0,28,0.00,,,0.00,WUHU21623XXSP,2013-01-21 09:25:00,
2013-01-21 04:30:00,15.6,-11.1,29.43,WSW,247,0.0,0.0,29,0.00,,,0.00,WUHU21623XXSP,2013-01-21 09:30:00,
2013-01-21 04:35:00,16.0,-10.0,29.42,SW,225,0.0,0.0,30,0.00,,,0.00,WUHU21623XXSP,2013-01-21 09:35:00,
2013-01-21 04:40:00,16.0,-10.8,29.42,SW,225,0.0,0.0,29,0.00,,,0.00,WUHU21623XXSP,2013-01-21 09:40:00,
2013-01-21 04:45:00,16.0,-10.8,29.42,SW,225,0.0,0.0,29,0.00,,,0.00,WUHU21623XXSP,2013-01-21 09:45:00,
2013-01-21 04:50:00,16.5,-9.5,29.42,SW,225,0.0,0.0,30,0.00,,,0.00,WUHU21623XXSP,2013-01-21 09:50:00,
2013-01-21 04:55:00,16.7,-8.8,29.42,SW,225,0.0,0.0,31,0.00,,,0.00,WUHU21623XXSP,2013-01-21 09:55:00,
2013-01-21 05:00:00,16.9,-8.7,29.41,SW,225,0.0,0.0,31,0.00,,,0.00,WUHU21623XXSP,2013-01-21 10:00:00,
2013-01-21 05:05:00,17.2,-7.8,29.41,SW,225,0.0,0.0,32,0.00,,,0.00,WUHU21623XXSP,2013-01-21 10:05:00,
2013-01-21 05:10:00,17.8,-6.7,29.41,SW,225,0.0,0.0,33,0.00,,,0.00,WUHU21623XXSP,2013-01-21 10:10:00,
2013-01-21 05:15:00,17.8,-7.9,29.41,SW,225,0.0,0.0,31,0.00,,,0.00,WUHU21623XXSP,2013-01-21 10:15:00,
2013-01-21 05:20:00,17.8,-7.9,29.41,WSW,247,0.0,0.0,31,0.00,,,0.00,WUHU21623XXSP,2013-01-21 10:20:00,
2013-01-21 05:25:00,17.8,-7.9,29.40,WSW,247,0.0,0.0,31,0.00,,,0.00,WUHU21623XXSP,2013-01-21 10:25:00,
2013-01-21 05:30:00,18.0,-7.7,29.41,SW,225,0.0,0.0,31,0.00,,,0.00,WUHU21623XXSP,2013-01-21 10:30:00,
2013-01-21 05:35:00,18.0,-7.1,29.40,SSW,202,0.0,0.0,32,0.00,,,0.00,WUHU21623XXSP,2013-01-21 10:35:00,
2013-01-21 05:40:00,17.8,-7.9,29.40,SSE,157,0.0,0.0,31,0.00,,,0.00,WUHU21623XXSP,2013-01-21 10:40:00,
2013-01-21 05:45:00,17.4,-8.8,29.40,SSE,157,0.0,0.0,30,0.00,,,0.00,WUHU21623XXSP,2013-01-21 10:45:00,
2013-01-21 05:50:00,17.4,-8.8,29.40,SSE,157,0.0,0.0,30,0.00,,,0.00,WUHU21623XXSP,2013-01-21 10:50:00,
2013-01-21 05:55:00,17.2,-9.0,29.40,South,180,0.0,0.0,30,0.00,,,0.00,WUHU21623XXSP,2013-01-21 10:55:00,
2013-01-21 06:00:00,17.1,-8.5,29.40,South,180,0.0,0.0,31,0.00,,,0.00,WUHU21623XXSP,2013-01-21 11:00:00,
2013-01-21 06:05:00,16.9,-8.7,29.39,South,180,0.0,0.0,31,0.00,,,0.00,WUHU21623XXSP,2013-01-21 11:05:00,
2013-01-21 06:10:00,16.9,-8.7,29.39,South,180,0.0,0.0,31,0.00,,,0.00,WUHU21623XXSP,2013-01-21 11:10:00,
2013-01-21 06:15:00,16.9,-7.5,29.39,SSE,157,0.0,0.0,33,0.00,,,0.00,WUHU21623XXSP,2013-01-21 11:15:00,
2013-01-21 06:20:00,16.9,-6.9,29.39,South,180,0.0,2.5,34,0.00,,,0.00,WUHU21623XXSP,2013-01-21 11:20:00,
2013-01-21 06:25:00,17.1,-6.7,29.39,South,180,0.0,2.5,34,0.00,,,0.00,WUHU21623XXSP,2013-01-21 11:25:00,
2013-01-21 06:30:00,16.9,-6.3,29.39,SSE,157,0.0,0.0,35,0.00,,,0.00,WUHU21623XXSP,2013-01-21 11:30:00,
2013-01-21 06:35:00,16.9,-6.3,29.39,South,180,0.0,0.0,35,0.00,,,0.00,WUHU21623XXSP,2013-01-21 11:35:00,
2013-01-21 06:40:00,17.1,-5.5,29.38,SSE,157,3.8,3.8,36,0.00,,,0.00,WUHU21623XXSP,2013-01-21 11:40:00,
2013-01-21 06:45:00,16.9,-5.1,29.38,South,180,0.0,4.3,37,0.00,,,0.00,WUHU21623XXSP,2013-01-21 11:45:00,
2013-01-21 06:50:00,16.7,-4.6,29.38,SSW,202,0.0,4.3,38,0.00,,,0.00,WUHU21623XXSP,2013-01-21 11:50:00,
2013-01-21 06:55:00,16.7,-4.6,29.38,SW,225,0.0,0.0,38,0.00,,,0.00,WUHU21623XXSP,2013-01-21 11:55:00,
2013-01-21 07:00:00,16.7,-3.5,29.38,SSW,202,0.0,0.0,40,0.00,,,0.00,WUHU21623XXSP,2013-01-21 12:00:00,
2013-01-21 07:05:00,16.9,-3.3,29.38,South,180,0.0,0.0,40,0.00,,,0.00,WUHU21623XXSP,2013-01-21 12:05:00,
2013-01-21 07:10:00,16.9,-3.3,29.37,SW,225,0.0,2.5,40,0.00,,,0.00,WUHU21623XXSP,2013-01-21 12:10:00,
2013-01-21 07:15:00,16.9,-2.8,29.38,SW,225,0.0,2.5,41,0.00,,,0.00,WUHU21623XXSP,2013-01-21 12:15:00,
2013-01-21 07:20:00,16.9,-2.3,29.37,WSW,247,0.0,0.0,42,0.00,,,0.00,WUHU21623XXSP,2013-01-21 12:20:00,
2013-01-21 07:25:00,16.7,-2.5,29.38,South,180,3.1,3.1,42,0.00,,,0.00,WUHU21623XXSP,2013-01-21 12:25:00,
2013-01-21 07:30:00,16.7,-2.0,29.38,South,180,0.0,3.1,43,0.00,,,0.00,WUHU21623XXSP,2013-01-21 12:30:00,
2013-01-21 07:35:00,16.7,-1.6,29.37,SSW,202,0.0,0.4,44,0.00,,,0.00,WUHU21623XXSP,2013-01-21 12:35:00,
2013-01-21 07:40:00,16.7,-1.6,29.37,SSW,202,0.0,0.0,45,0.00,,,0.00,WUHU21623XXSP,2013-01-21 12:40:00,
2013-01-21 07:45:00,16.7,-1.1,29.37,SW,225,0.0,0.0,45,0.00,,,0.00,WUHU21623XXSP,2013-01-21 12:45:00,
2013-01-21 07:50:00,16.7,-0.6,29.37,SSW,202,0.0,0.0,46,0.00,,,0.00,WUHU21623XXSP,2013-01-21 12:50:00,
2013-01-21 07:55:00,16.7,-0.6,29.36,SSW,202,0.0,0.2,46,0.00,,,0.00,WUHU21623XXSP,2013-01-21 12:55:00,
2013-01-21 08:00:00,16.7,-0.1,29.36,WSW,247,0.0,0.2,47,0.00,,,0.00,WUHU21623XXSP,2013-01-21 13:00:00,
2013-01-21 08:05:00,16.9,0.5,29.36,South,180,0.0,0.0,48,0.00,,,0.00,WUHU21623XXSP,2013-01-21 13:05:00,
2013-01-21 08:10:00,16.9,1.0,29.36,WSW,247,2.2,2.2,49,0.00,,,0.00,WUHU21623XXSP,2013-01-21 13:10:00,
2013-01-21 08:15:00,16.9,1.0,29.36,SSW,202,5.1,5.1,49,0.00,,,0.00,WUHU21623XXSP,2013-01-21 13:15:00,
2013-01-21 08:20:00,16.7,1.3,29.36,SSW,202,0.0,5.1,50,0.00,,,0.00,WUHU21623XXSP,2013-01-21 13:20:00,
2013-01-21 08:25:00,16.9,1.5,29.36,SW,225,0.0,5.1,50,0.00,,,0.00,WUHU21623XXSP,2013-01-21 13:25:00,
2013-01-21 08:30:00,16.9,1.8,29.36,SW,225,0.0,5.1,51,0.00,,,0.00,WUHU21623XXSP,2013-01-21 13:30:00,
2013-01-21 08:35:00,17.1,2.0,29.36,WSW,247,0.0,3.8,51,0.00,,,0.00,WUHU21623XXSP,2013-01-21 13:35:00,
2013-01-21 08:40:00,17.1,2.4,29.36,WSW,247,3.4,3.8,52,0.00,,,0.00,WUHU21623XXSP,2013-01-21 13:40:00,
2013-01-21 08:45:00,17.1,2.4,29.36,West,270,0.0,3.4,52,0.00,,,0.00,WUHU21623XXSP,2013-01-21 13:45:00,
2013-01-21 08:50:00,17.1,2.8,29.35,WSW,247,2.7,4.7,53,0.00,,,0.00,WUHU21623XXSP,2013-01-21 13:50:00,
2013-01-21 08:55:00,17.1,2.8,29.35,West,270,2.2,8.3,53,0.00,,,0.00,WUHU21623XXSP,2013-01-21 13:55:00,
2013-01-21 09:00:00,17.2,3.4,29.35,WSW,247,7.6,8.3,54,0.00,,,0.00,WUHU21623XXSP,2013-01-21 14:00:00,
2013-01-21 09:05:00,17.4,3.9,29.36,West,270,2.9,7.6,55,0.00,,,0.00,WUHU21623XXSP,2013-01-21 14:05:00,
2013-01-21 09:10:00,17.2,3.8,29.36,West,270,7.4,7.4,55,0.00,,,0.00,WUHU21623XXSP,2013-01-21 14:10:00,
2013-01-21 09:15:00,17.1,3.6,29.36,WNW,292,7.4,7.4,55,0.00,,,0.00,WUHU21623XXSP,2013-01-21 14:15:00,
2013-01-21 09:20:00,16.9,3.4,29.36,West,270,5.8,7.4,55,0.00,,,0.00,WUHU21623XXSP,2013-01-21 14:20:00,
2013-01-21 09:25:00,16.7,3.6,29.36,West,270,3.6,10.3,56,0.00,,,0.00,WUHU21623XXSP,2013-01-21 14:25:00,
2013-01-21 09:30:00,16.9,3.8,29.36,WNW,292,0.0,10.3,56,0.00,,,0.00,WUHU21623XXSP,2013-01-21 14:30:00,
2013-01-21 09:35:00,16.7,3.6,29.36,WNW,292,0.0,4.9,56,0.00,,,0.00,WUHU21623XXSP,2013-01-21 14:35:00,
2013-01-21 09:40:00,16.7,3.6,29.36,WSW,247,8.7,8.7,56,0.00,,,0.00,WUHU21623XXSP,2013-01-21 14:40:00,
2013-01-21 09:45:00,16.7,3.6,29.36,WNW,292,5.4,8.7,56,0.00,,,0.00,WUHU21623XXSP,2013-01-21 14:45:00,
2013-01-21 09:50:00,16.7,3.6,29.36,West,270,0.0,5.4,56,0.00,,,0.00,WUHU21623XXSP,2013-01-21 14:50:00,
2013-01-21 09:55:00,16.7,3.6,29.36,NW,315,0.0,5.8,56,0.00,,,0.00,WUHU21623XXSP,2013-01-21 14:55:00,
2013-01-21 10:00:00,16.5,3.1,29.36,WNW,292,5.4,8.5,55,0.00,,,0.00,WUHU21623XXSP,2013-01-21 15:00:00,
2013-01-21 10:05:00,16.5,2.7,29.36,WNW,292,5.6,8.5,54,0.00,,,0.00,WUHU21623XXSP,2013-01-21 15:05:00,
2013-01-21 10:11:00,16.3,2.5,29.37,West,270,0.0,5.6,54,0.00,,,0.00,WUHU21623XXSP,2013-01-21 15:11:00,
2013-01-21 10:16:00,16.5,2.7,29.37,WNW,292,0.0,4.3,54,0.00,,,0.00,WUHU21623XXSP,2013-01-21 15:16:00,
2013-01-21 10:21:00,16.7,2.5,29.36,NW,315,4.5,5.1,53,0.00,,,0.00,WUHU21623XXSP,2013-01-21 15:21:00,
2013-01-21 10:26:00,17.1,2.8,29.36,NW,315,4.5,6.0,53,0.00,,,0.00,WUHU21623XXSP,2013-01-21 15:26:00,
2013-01-21 10:30:00,17.4,3.1,29.36,NNW,337,0.0,6.0,53,0.00,,,0.00,WUHU21623XXSP,2013-01-21 15:30:00,
2013-01-21 10:36:00,17.8,3.1,29.36,West,270,3.6,3.6,52,0.00,,,0.00,WUHU21623XXSP,2013-01-21 15:36:00,
2013-01-21 10:41:00,18.0,2.8,29.36,West,270,2.9,8.7,51,0.00,,,0.00,WUHU21623XXSP,2013-01-21 15:41:00,
2013-01-21 10:46:00,17.8,2.3,29.36,WNW,292,0.0,8.7,50,0.00,,,0.00,WUHU21623XXSP,2013-01-21 15:46:00,
2013-01-21 10:51:00,17.8,1.3,29.36,WNW,292,0.0,4.7,48,0.00,,,0.00,WUHU21623XXSP,2013-01-21 15:51:00,
2013-01-21 10:56:00,17.8,1.3,29.36,WNW,292,5.1,5.1,48,0.00,,,0.00,WUHU21623XXSP,2013-01-21 15:56:00,
2013-01-21 11:01:00,18.0,1.0,29.36,WNW,292,0.0,5.1,47,0.00,,,0.00,WUHU21623XXSP,2013-01-21 16:01:00,
2013-01-21 11:06:00,18.1,1.2,29.36,WNW,292,10.1,10.1,47,0.00,,,0.00,WUHU21623XXSP,2013-01-21 16:06:00,
2013-01-21 11:11:00,18.3,0.9,29.36,WNW,292,4.9,10.1,46,0.00,,,0.00,WUHU21623XXSP,2013-01-21 16:11:00,
2013-01-21 11:16:00,18.3,0.4,29.36,WNW,292,2.9,6.0,45,0.00,,,0.00,WUHU21623XXSP,2013-01-21 16:16:00,
2013-01-21 11:21:00,18.3,0.4,29.36,WNW,292,0.0,5.1,45,0.00,,,0.00,WUHU21623XXSP,2013-01-21 16:21:00,
2013-01-21 11:26:00,18.3,0.0,29.35,WNW,292,6.3,6.3,44,0.00,,,0.00,WUHU21623XXSP,2013-01-21 16:26:00,
2013-01-21 11:30:00,18.3,0.0,29.35,WNW,292,0.0,6.3,44,0.00,,,0.00,WUHU21623XXSP,2013-01-21 16:30:00,
2013-01-21 11:35:00,19.0,0.6,29.35,West,270,0.0,1.6,44,0.00,,,0.00,WUHU21623XXSP,2013-01-21 16:35:00,
2013-01-21 11:40:00,19.2,0.3,29.34,NW,315,5.8,5.8,43,0.00,,,0.00,WUHU21623XXSP,2013-01-21 16:40:00,
2013-01-21 11:45:00,19.2,0.3,29.34,WNW,292,2.0,7.4,43,0.00,,,0.00,WUHU21623XXSP,2013-01-21 16:45:00,
2013-01-21 11:51:00,19.0,-0.8,29.34,WNW,292,5.1,7.4,41,0.00,,,0.00,WUHU21623XXSP,2013-01-21 16:51:00,
2013-01-21 11:55:00,18.9,-1.4,29.34,West,270,4.5,7.2,40,0.00,,,0.00,WUHU21623XXSP,2013-01-21 16:55:00,
2013-01-21 12:01:00,18.7,-2.2,29.33,NW,315,4.3,6.0,39,0.00,,,0.00,WUHU21623XXSP,2013-01-21 17:01:00,
2013-01-21 12:06:00,18.5,-3.6,29.33,West,270,6.0,6.7,37,0.00,,,0.00,WUHU21623XXSP,2013-01-21 17:06:00,
2013-01-21 12:11:00,18.3,-3.7,29.33,WNW,292,0.7,6.7,37,0.00,,,0.00,WUHU21623XXSP,2013-01-21 17:11:00,
2013-01-21 12:16:00,18.5,-3.6,29.33,WNW,292,12.5,12.5,37,0.00,,,0.00,WUHU21623XXSP,2013-01-21 17:16:00,
2013-01-21 12:21:00,18.1,-4.5,29.33,WNW,292,4.9,12.5,36,0.00,,,0.00,WUHU21623XXSP,2013-01-21 17:21:00,
2013-01-21 12:26:00,17.8,-5.5,29.33,West,270,0.2,8.3,35,0.00,,,0.00,WUHU21623XXSP,2013-01-21 17:26:00,
2013-01-21 12:31:00,18.1,-5.1,29.32,WNW,292,0.0,6.0,35,0.00,,,0.00,WUHU21623XXSP,2013-01-21 17:31:00,
2013-01-21 12:36:00,18.1,-5.1,29.32,WNW,292,10.5,10.5,35,0.00,,,0.00,WUHU21623XXSP,2013-01-21 17:36:00,
2013-01-21 12:41:00,18.0,-5.3,29.32,WNW,292,2.5,10.5,35,0.00,,,0.00,WUHU21623XXSP,2013-01-21 17:41:00,
2013-01-21 12:46:00,17.8,-6.7,29.32,WNW,292,0.0,8.1,33,0.00,,,0.00,WUHU21623XXSP,2013-01-21 17:46:00,
2013-01-21 12:51:00,17.8,-6.7,29.32,WNW,292,9.4,9.4,33,0.00,,,0.00,WUHU21623XXSP,2013-01-21 17:51:00,
2013-01-21 12:56:00,17.6,-7.5,29.32,West,270,4.7,9.4,32,0.00,,,0.00,WUHU21623XXSP,2013-01-21 17:56:00,
2013-01-21 13:01:00,17.8,-7.9,29.32,West,270,5.6,7.8,31,0.00,,,0.00,WUHU21623XXSP,2013-01-21 18:01:00,
2013-01-21 13:06:00,17.2,-11.4,29.32,West,270,10.1,10.1,27,0.00,,,0.00,WUHU21623XXSP,2013-01-21 18:06:00,
2013-01-21 13:11:00,17.2,-13.0,29.32,WNW,292,4.0,10.1,25,0.00,,,0.00,WUHU21623XXSP,2013-01-21 18:11:00,
2013-01-21 13:16:00,17.1,-15.6,29.32,West,270,4.9,6.3,22,0.00,,,0.00,WUHU21623XXSP,2013-01-21 18:16:00,
2013-01-21 13:21:00,17.1,-18.1,29.32,West,270,5.4,7.4,19,0.00,,,0.00,WUHU21623XXSP,2013-01-21 18:21:00,
2013-01-21 13:26:00,17.1,-18.1,29.31,WSW,247,4.7,7.4,19,0.00,,,0.00,WUHU21623XXSP,2013-01-21 18:26:00,
2013-01-21 13:31:00,17.1,-18.1,29.31,West,270,5.6,5.6,19,0.00,,,0.00,WUHU21623XXSP,2013-01-21 18:31:00,
2013-01-21 13:36:00,17.2,-13.8,29.32,WNW,292,0.0,5.6,24,0.00,,,0.00,WUHU21623XXSP,2013-01-21 18:36:00,
2013-01-21 13:41:00,17.4,-11.3,29.32,WNW,292,7.2,7.2,27,0.00,,,0.00,WUHU21623XXSP,2013-01-21 18:41:00,
2013-01-21 13:46:00,17.2,-10.6,29.32,WNW,292,6.5,7.6,28,0.00,,,0.00,WUHU21623XXSP,2013-01-21 18:46:00,
2013-01-21 13:51:00,17.2,-10.6,29.32,WNW,292,8.5,8.5,28,0.00,,,0.00,WUHU21623XXSP,2013-01-21 18:51:00,
2013-01-21 13:56:00,17.4,-11.3,29.32,West,270,0.0,8.5,27,0.00,,,0.00,WUHU21623XXSP,2013-01-21 18:56:00,
2013-01-21 14:01:00,17.8,-11.8,29.32,West,270,0.0,7.6,26,0.00,,,0.00,WUHU21623XXSP,2013-01-21 19:01:00,
2013-01-21 14:06:00,17.8,-10.9,29.32,WNW,292,8.1,8.1,27,0.00,,,0.00,WUHU21623XXSP,2013-01-21 19:06:00,
2013-01-21 14:11:00,17.8,-12.6,29.32,WSW,247,11.0,11.0,25,0.00,,,0.00,WUHU21623XXSP,2013-01-21 19:11:00,
2013-01-21 14:16:00,17.2,-16.3,29.32,West,270,4.7,11.0,21,0.00,,,0.00,WUHU21623XXSP,2013-01-21 19:16:00,
2013-01-21 14:21:00,17.2,-17.1,29.32,West,270,0.0,8.9,20,0.00,,,0.00,WUHU21623XXSP,2013-01-21 19:21:00,
2013-01-21 14:26:00,17.2,-18.0,29.32,West,270,5.4,10.5,19,0.00,,,0.00,WUHU21623XXSP,2013-01-21 19:26:00,
2013-01-21 14:31:00,17.2,-18.0,29.32,WNW,292,4.7,10.5,19,0.00,,,0.00,WUHU21623XXSP,2013-01-21 19:31:00,
2013-01-21 14:36:00,17.6,-17.7,29.32,WSW,247,13.0,13.0,19,0.00,,,0.00,WUHU21623XXSP,2013-01-21 19:36:00,
2013-01-21 14:41:00,17.4,-17.8,29.33,WNW,292,6.5,13.0,19,0.00,,,0.00,WUHU21623XXSP,2013-01-21 19:41:00,
2013-01-21 14:46:00,17.1,-17.2,29.33,WNW,292,4.9,9.2,20,0.00,,,0.00,WUHU21623XXSP,2013-01-21 19:46:00,
2013-01-21 14:51:00,16.5,-16.0,29.33,WNW,292,4.5,6.5,22,0.00,,,0.00,WUHU21623XXSP,2013-01-21 19:51:00,
2013-01-21 14:56:00,16.0,-14.0,29.33,WNW,292,4.5,4.9,25,0.00,,,0.00,WUHU21623XXSP,2013-01-21 19:56:00,
2013-01-21 15:01:00,16.0,-14.8,29.33,West,270,2.5,8.5,24,0.00,,,0.00,WUHU21623XXSP,2013-01-21 20:01:00,
2013-01-21 15:06:00,16.0,-16.5,29.33,West,270,3.8,9.4,22,0.00,,,0.00,WUHU21623XXSP,2013-01-21 20:06:00,
2013-01-21 15:11:00,16.2,-18.8,29.34,WSW,247,6.3,9.4,19,0.00,,,0.00,WUHU21623XXSP,2013-01-21 20:11:00,
2013-01-21 15:16:00,16.5,-18.6,29.34,West,270,6.9,9.8,19,0.00,,,0.00,WUHU21623XXSP,2013-01-21 20:16:00,
2013-01-21 15:21:00,16.9,-18.2,29.34,West,270,5.8,9.8,19,0.00,,,0.00,WUHU21623XXSP,2013-01-21 20:21:00,
2013-01-21 15:26:00,17.4,-17.8,29.34,WNW,292,6.5,6.5,19,0.00,,,0.00,WUHU21623XXSP,2013-01-21 20:26:00,
2013-01-21 15:31:00,17.2,-18.0,29.34,NW,315,7.8,7.8,19,0.00,,,0.00,WUHU21623XXSP,2013-01-21 20:31:00,
2013-01-21 15:36:00,17.1,-18.1,29.35,NW,315,5.6,9.8,19,0.00,,,0.00,WUHU21623XXSP,2013-01-21 20:36:00,
2013-01-21 15:41:00,16.5,-18.6,29.35,WNW,292,1.3,9.8,19,0.00,,,0.00,WUHU21623XXSP,2013-01-21 20:41:00,
2013-01-21 15:46:00,16.0,-19.0,29.36,WNW,292,6.9,6.9,19,0.00,,,0.00,WUHU21623XXSP,2013-01-21 20:46:00,
2013-01-21 15:51:00,15.4,-19.5,29.36,West,270,3.6,8.7,19,0.00,,,0.00,WUHU21623XXSP,2013-01-21 20:51:00,
2013-01-21 15:56:00,15.1,-18.8,29.36,WNW,292,0.0,8.7,20,0.00,,,0.00,WUHU21623XXSP,2013-01-21 20:56:00,
2013-01-21 16:01:00,15.1,-13.2,29.36,WNW,292,7.4,7.4,27,0.00,,,0.00,WUHU21623XXSP,2013-01-21 21:01:00,
2013-01-21 16:06:00,14.9,-10.9,29.36,WNW,292,8.3,8.3,30,0.00,,,0.00,WUHU21623XXSP,2013-01-21 21:06:00,
2013-01-21 16:11:00,14.7,-9.4,29.36,WNW,292,2.7,8.3,33,0.00,,,0.00,WUHU21623XXSP,2013-01-21 21:11:00,
2013-01-21 16:16:00,14.4,-9.1,29.36,WNW,292,5.8,7.4,34,0.00,,,0.00,WUHU21623XXSP,2013-01-21 21:16:00,
2013-01-21 16:21:00,14.4,-8.5,29.37,WNW,292,0.0,5.8,35,0.00,,,0.00,WUHU21623XXSP,2013-01-21 21:21:00,
2013-01-21 16:26:00,14.2,-7.5,29.37,West,270,3.4,4.5,37,0.00,,,0.00,WUHU21623XXSP,2013-01-21 21:26:00,
2013-01-21 16:31:00,14.2,-7.0,29.37,WSW,247,5.1,5.1,38,0.00,,,0.00,WUHU21623XXSP,2013-01-21 21:31:00,
2013-01-21 16:36:00,13.6,-7.5,29.37,WNW,292,8.3,8.3,38,0.00,,,0.00,WUHU21623XXSP,2013-01-21 21:36:00,
2013-01-21 16:41:00,13.5,-7.0,29.37,West,270,3.6,9.2,39,0.00,,,0.00,WUHU21623XXSP,2013-01-21 21:41:00,
2013-01-21 16:46:00,13.5,-7.0,29.37,NW,315,6.3,9.2,39,0.00,,,0.00,WUHU21623XXSP,2013-01-21 21:46:00,
2013-01-21 16:51:00,12.9,-7.5,29.37,WNW,292,0.0,9.2,39,0.00,,,0.00,WUHU21623XXSP,2013-01-21 21:51:00,
2013-01-21 16:56:00,12.6,-8.4,29.38,WNW,292,5.6,6.5,38,0.00,,,0.00,WUHU21623XXSP,2013-01-21 21:56:00,
2013-01-21 17:01:00,12.4,-8.6,29.37,WNW,292,0.0,5.6,38,0.00,,,0.00,WUHU21623XXSP,2013-01-21 22:01:00,
2013-01-21 17:06:00,12.4,-8.6,29.38,WNW,292,4.9,4.9,38,0.00,,,0.00,WUHU21623XXSP,2013-01-21 22:06:00,
2013-01-21 17:11:00,12.2,-9.3,29.38,West,270,0.0,6.0,37,0.00,,,0.00,WUHU21623XXSP,2013-01-21 22:11:00,
2013-01-21 17:16:00,12.4,-9.2,29.38,WNW,292,0.0,6.0,37,0.00,,,0.00,WUHU21623XXSP,2013-01-21 22:16:00,
2013-01-21 17:21:00,12.0,-10.1,29.38,WNW,292,0.0,5.6,36,0.00,,,0.00,WUHU21623XXSP,2013-01-21 22:21:00,
2013-01-21 17:26:00,11.7,-11.0,29.38,West,270,9.8,9.8,35,0.00,,,0.00,WUHU21623XXSP,2013-01-21 22:26:00,
2013-01-21 17:31:00,11.3,-11.3,29.39,West,270,0.0,9.8,35,0.00,,,0.00,WUHU21623XXSP,2013-01-21 22:31:00,
2013-01-21 17:36:00,11.1,-11.5,29.38,WNW,292,5.8,6.5,35,0.00,,,0.00,WUHU21623XXSP,2013-01-21 22:36:00,
2013-01-21 17:41:00,10.8,-11.8,29.39,West,270,5.1,5.8,35,0.00,,,0.00,WUHU21623XXSP,2013-01-21 22:41:00,
2013-01-21 17:46:00,10.6,-11.9,29.38,West,270,4.0,5.1,35,0.00,,,0.00,WUHU21623XXSP,2013-01-21 22:46:00,
2013-01-21 17:51:00,10.4,-10.9,29.38,West,270,3.6,4.5,37,0.00,,,0.00,WUHU21623XXSP,2013-01-21 22:51:00,
2013-01-21 17:56:00,10.4,-10.4,29.39,WSW,247,4.3,4.3,38,0.00,,,0.00,WUHU21623XXSP,2013-01-21 22:56:00,
2013-01-21 18:01:00,10.4,-9.8,29.39,NW,315,0.0,6.5,39,0.00,,,0.00,WUHU21623XXSP,2013-01-21 23:01:00,
2013-01-21 18:06:00,10.6,-9.1,29.39,West,270,2.5,6.5,40,0.00,,,0.00,WUHU21623XXSP,2013-01-21 23:06:00,
2013-01-21 18:11:00,10.6,-9.1,29.39,West,270,5.8,5.8,40,0.00,,,0.00,WUHU21623XXSP,2013-01-21 23:11:00,
2013-01-21 18:16:00,10.4,-8.8,29.39,WNW,292,3.4,7.2,41,0.00,,,0.00,WUHU21623XXSP,2013-01-21 23:16:00,
2013-01-21 18:21:00,10.2,-9.4,29.39,West,270,4.3,7.2,40,0.00,,,0.00,WUHU21623XXSP,2013-01-21 23:21:00,
2013-01-21 18:26:00,9.9,-10.3,29.39,WNW,292,6.0,6.0,39,0.00,,,0.00,WUHU21623XXSP,2013-01-21 23:26:00,
2013-01-21 18:31:00,9.5,-11.2,29.39,WSW,247,4.5,6.0,38,0.00,,,0.00,WUHU21623XXSP,2013-01-21 23:31:00,
2013-01-21 18:36:00,9.5,-11.8,29.39,West,270,6.9,6.9,37,0.00,,,0.00,WUHU21623XXSP,2013-01-21 23:36:00,
2013-01-21 18:41:00,9.3,-12.5,29.39,WNW,292,5.6,6.9,36,0.00,,,0.00,WUHU21623XXSP,2013-01-21 23:41:00,
2013-01-21 18:46:00,9.3,-12.5,29.40,WNW,292,0.0,5.6,36,0.00,,,0.00,WUHU21623XXSP,2013-01-21 23:46:00,
2013-01-21 18:51:00,9.5,-12.3,29.40,WNW,292,2.0,4.7,36,0.00,,,0.00,WUHU21623XXSP,2013-01-21 23:51:00,
2013-01-21 18:56:00,9.5,-12.9,29.40,NW,315,3.4,3.4,35,0.00,,,0.00,WUHU21623XXSP,2013-01-21 23:56:00,
2013-01-21 19:01:00,9.5,-12.3,29.40,WNW,292,0.0,4.0,36,0.00,,,0.00,WUHU21623XXSP,2013-01-22 00:01:00,
2013-01-21 19:06:00,9.5,-12.3,29.40,WNW,292,0.0,6.3,36,0.00,,,0.00,WUHU21623XXSP,2013-01-22 00:06:00,
2013-01-21 19:11:00,9.5,-11.8,29.40,West,270,10.7,10.7,37,0.00,,,0.00,WUHU21623XXSP,2013-01-22 00:11:00,
2013-01-21 19:16:00,9.3,-11.9,29.41,West,270,8.5,10.7,37,0.00,,,0.00,WUHU21623XXSP,2013-01-22 00:16:00,
2013-01-21 19:21:00,9.0,-12.2,29.41,WNW,292,7.4,8.5,37,0.00,,,0.00,WUHU21623XXSP,2013-01-22 00:21:00,
2013-01-21 19:26:00,8.6,-13.1,29.41,WNW,292,0.9,9.8,36,0.00,,,0.00,WUHU21623XXSP,2013-01-22 00:26:00,
2013-01-21 19:31:00,8.2,-13.5,29.41,WSW,247,9.8,9.8,36,0.00,,,0.00,WUHU21623XXSP,2013-01-22 00:31:00,
2013-01-21 19:36:00,8.1,-13.6,29.41,West,270,0.0,9.8,36,0.00,,,0.00,WUHU21623XXSP,2013-01-22 00:36:00,
2013-01-21 19:41:00,7.7,-13.4,29.41,West,270,4.9,7.6,37,0.00,,,0.00,WUHU21623XXSP,2013-01-22 00:41:00,
2013-01-21 19:46:00,7.7,-13.4,29.41,WNW,292,0.0,4.9,37,0.00,,,0.00,WUHU21623XXSP,2013-01-22 00:46:00,
2013-01-21 19:51:00,7.5,-13.5,29.41,West,270,5.6,5.6,37,0.00,,,0.00,WUHU21623XXSP,2013-01-22 00:51:00,
2013-01-21 19:56:00,7.3,-13.1,29.41,WSW,247,4.9,5.6,38,0.00,,,0.00,WUHU21623XXSP,2013-01-22 00:56:00,
2013-01-21 20:01:00,7.3,-12.6,29.41,WSW,247,6.5,9.2,39,0.00,,,0.00,WUHU21623XXSP,2013-01-22 01:01:00,
2013-01-21 20:06:00,7.3,-12.6,29.42,West,270,0.0,9.2,39,0.00,,,0.00,WUHU21623XXSP,2013-01-22 01:06:00,
2013-01-21 20:11:00,7.5,-11.8,29.42,NW,315,0.0,0.0,40,0.00,,,0.00,WUHU21623XXSP,2013-01-22 01:11:00,
2013-01-21 20:16:00,7.7,-11.6,29.42,WSW,247,6.5,6.5,40,0.00,,,0.00,WUHU21623XXSP,2013-01-22 01:16:00,
2013-01-21 20:21:00,7.7,-11.6,29.42,West,270,5.4,6.5,40,0.00,,,0.00,WUHU21623XXSP,2013-01-22 01:21:00,
2013-01-21 20:26:00,7.7,-11.6,29.42,WSW,247,4.7,6.3,40,0.00,,,0.00,WUHU21623XXSP,2013-01-22 01:26:00,
2013-01-21 20:31:00,7.5,-11.8,29.42,WNW,292,10.3,10.3,40,0.00,,,0.00,WUHU21623XXSP,2013-01-22 01:31:00,
2013-01-21 20:36:00,7.2,-11.4,29.43,WNW,292,4.5,10.3,41,0.00,,,0.00,WUHU21623XXSP,2013-01-22 01:36:00,
2013-01-21 20:41:00,7.2,-11.7,29.43,West,270,4.5,5.4,41,0.00,,,0.00,WUHU21623XXSP,2013-01-22 01:41:00,
2013-01-21 20:46:00,7.0,-11.8,29.43,West,270,5.4,7.8,41,0.00,,,0.00,WUHU21623XXSP,2013-01-22 01:46:00,
2013-01-21 20:51:00,6.4,-12.3,29.43,West,270,4.3,7.8,41,0.00,,,0.00,WUHU21623XXSP,2013-01-22 01:51:00,
2013-01-21 20:56:00,6.3,-12.5,29.43,WNW,292,6.0,6.0,41,0.00,,,0.00,WUHU21623XXSP,2013-01-22 01:56:00,
2013-01-21 21:01:00,6.1,-13.1,29.44,WNW,292,6.5,16.8,40,0.00,,,0.00,WUHU21623XXSP,2013-01-22 02:01:00,
2013-01-21 21:06:00,5.9,-13.3,29.43,West,270,1.3,16.8,40,0.00,,,0.00,WUHU21623XXSP,2013-01-22 02:06:00,
2013-01-21 21:11:00,5.7,-14.6,29.43,West,270,8.3,8.3,38,0.00,,,0.00,WUHU21623XXSP,2013-01-22 02:11:00,
2013-01-21 21:16:00,5.5,-15.3,29.43,West,270,4.3,8.3,37,0.00,,,0.00,WUHU21623XXSP,2013-01-22 02:16:00,
2013-01-21 21:21:00,5.4,-16.0,29.44,WNW,292,6.3,6.3,36,0.00,,,0.00,WUHU21623XXSP,2013-01-22 02:21:00,
2013-01-21 21:26:00,5.2,-17.3,29.44,WNW,292,3.6,6.3,34,0.00,,,0.00,WUHU21623XXSP,2013-01-22 02:26:00,
2013-01-21 21:31:00,5.2,-17.8,29.44,West,270,0.0,7.8,33,0.00,,,0.00,WUHU21623XXSP,2013-01-22 02:31:00,
2013-01-21 21:36:00,5.0,-19.1,29.44,West,270,8.3,8.3,31,0.00,,,0.00,WUHU21623XXSP,2013-01-22 02:36:00,
2013-01-21 21:41:00,4.6,-22.8,29.44,WSW,247,7.6,9.2,26,0.00,,,0.00,WUHU21623XXSP,2013-01-22 02:41:00,
2013-01-21 21:46:00,4.6,-23.6,29.44,West,270,0.0,9.2,25,0.00,,,0.00,WUHU21623XXSP,2013-01-22 02:46:00,
2013-01-21 21:51:00,4.5,-26.0,29.44,West,270,0.0,4.9,22,0.00,,,0.00,WUHU21623XXSP,2013-01-22 02:51:00,
2013-01-21 21:56:00,4.3,-28.8,29.44,West,270,2.9,5.6,19,0.00,,,0.00,WUHU21623XXSP,2013-01-22 02:56:00,
2013-01-21 22:01:00,4.3,-28.8,29.44,WSW,247,0.0,6.3,19,0.00,,,0.00,WUHU21623XXSP,2013-01-22 03:01:00,
2013-01-21 22:06:00,4.1,-28.9,29.44,West,270,6.9,9.4,19,0.00,,,0.00,WUHU21623XXSP,2013-01-22 03:06:00,
2013-01-21 22:11:00,4.1,-28.9,29.44,WNW,292,0.7,9.4,19,0.00,,,0.00,WUHU21623XXSP,2013-01-22 03:11:00,
2013-01-21 22:16:00,4.1,-28.9,29.44,WSW,247,6.5,8.3,19,0.00,,,0.00,WUHU21623XXSP,2013-01-22 03:16:00,
2013-01-21 22:21:00,4.1,-28.9,29.45,West,270,0.0,6.5,19,0.00,,,0.00,WUHU21623XXSP,2013-01-22 03:21:00,
2013-01-21 22:26:00,3.9,-29.1,29.45,West,270,6.0,7.4,19,0.00,,,0.00,WUHU21623XXSP,2013-01-22 03:26:00,
2013-01-21 22:31:00,3.9,-29.1,29.45,West,270,4.3,7.4,19,0.00,,,0.00,WUHU21623XXSP,2013-01-22 03:31:00,
2013-01-21 22:36:00,3.7,-29.3,29.45,West,270,0.0,4.3,19,0.00,,,0.00,WUHU21623XXSP,2013-01-22 03:36:00,
2013-01-21 22:41:00,3.7,-29.3,29.46,West,270,2.0,6.5,19,0.00,,,0.00,WUHU21623XXSP,2013-01-22 03:41:00,
2013-01-21 22:46:00,3.6,-29.4,29.45,West,270,5.4,7.8,19,0.00,,,0.00,WUHU21623XXSP,2013-01-22 03:46:00,
2013-01-21 22:51:00,3.4,-29.5,29.45,West,270,5.6,7.8,19,0.00,,,0.00,WUHU21623XXSP,2013-01-22 03:51:00,
2013-01-21 22:56:00,3.4,-29.5,29.46,West,270,0.0,7.2,19,0.00,,,0.00,WUHU21623XXSP,2013-01-22 03:56:00,
2013-01-21 23:01:00,3.4,-29.5,29.46,WNW,292,0.0,5.4,19,0.00,,,0.00,WUHU21623XXSP,2013-01-22 04:01:00,
2013-01-21 23:06:00,3.4,-29.5,29.46,West,270,6.0,6.0,19,0.00,,,0.00,WUHU21623XXSP,2013-01-22 04:06:00,
2013-01-21 23:11:00,3.0,-29.9,29.45,West,270,5.1,6.0,19,0.00,,,0.00,WUHU21623XXSP,2013-01-22 04:11:00,
2013-01-21 23:16:00,3.2,-29.7,29.46,WNW,292,6.5,6.5,19,0.00,,,0.00,WUHU21623XXSP,2013-01-22 04:16:00,
2013-01-21 23:21:00,3.2,-29.7,29.46,WSW,247,5.4,8.3,19,0.00,,,0.00,WUHU21623XXSP,2013-01-22 04:21:00,
2013-01-21 23:26:00,3.2,-29.7,29.46,West,270,0.0,8.3,19,0.00,,,0.00,WUHU21623XXSP,2013-01-22 04:26:00,
2013-01-21 23:31:00,3.0,-29.9,29.46,WNW,292,0.0,5.1,19,0.00,,,0.00,WUHU21623XXSP,2013-01-22 04:31:00,
2013-01-21 23:36:00,2.8,-30.0,29.47,West,270,3.8,4.5,19,0.00,,,0.00,WUHU21623XXSP,2013-01-22 04:36:00,
2013-01-21 23:41:00,2.8,-30.0,29.46,West,270,0.9,3.8,19,0.00,,,0.00,WUHU21623XXSP,2013-01-22 04:41:00,
2013-01-21 23:46:00,2.8,-30.0,29.46,WSW,247,9.2,9.2,19,0.00,,,0.00,WUHU21623XXSP,2013-01-22 04:46:00,
2013-01-21 23:51:00,2.8,-30.0,29.46,WSW,247,1.3,9.2,19,0.00,,,0.00,WUHU21623XXSP,2013-01-22 04:51:00,
2013-01-21 23:56:00,2.7,-30.1,29.46,West,270,4.7,6.5,19,0.00,,,0.00,WUHU21623XXSP,2013-01-22 04:56:00,